User: anonymous
Location: Unspecified
(0.0000°N, 0.0000°E)
Time: 13:32:59
(UTC+02:00)
Language:

Resurs 1-3 - Orbit

View from above orbital plane
View from above orbital plane
View from above satellite
View from above satellite

Ground track
Ground track

The orbit data is extracted from the following two-line orbital elements,

1 23342U 94074A   14244.50449367  .00000308  00000-0  49633-4 0  2815
2 23342 098.1665 255.7680 0001956 118.0044 002.9799 14.78453208 67060
Epoch (UTC): 01 September 2014 12:06:28
Eccentricity: 0.0001956
inclination: 98.1665°
perigee height: 633 km
apogee height: 635 km
right ascension of ascending node: 255.7680°
argument of perigee: 118.0044°
revolutions per day: 14.78453208
mean anomaly at epoch: 2.9799°
orbit number at epoch: 6706

The dashed part of the orbit path shows where the satellite is in the earth's shadow,  

DLR